Regional Weather Roundup
Issued by NWS Mobile, AL

Home | Current Version | Previous Version | Text Only | Print | Product List | Glossary On
Versions: 1 2 3 4 5 6 7 8 9 10 11 12 13 14 15 16 17 18 19 20 21 22 23 24 25 26 27 28 29 30 31 32 33 34 35 36 37 38 39 40 41 42 43 44 45 46 47 48 49 50
464
ASUS44 KMOB 180612
RWRMOB
REGIONAL WEATHER ROUNDUP
NATIONAL WEATHER SERVICE MOBILE AL
1200 AM CST MON DEC 18 2017

NOTE: "FAIR" INDICATES FEW OR NO CLOUDS BELOW 12,000 FEET WITH NO
      SIGNIFICANT WEATHER AND/OR OBSTRUCTIONS TO VISIBILITY.

  * THESE STATIONS ARE PART OF THE UNIVERSITY OF SOUTH ALABAMA
    MESONET AND ARE NOT UNDER NWS OR FAA QUALITY CONTROL.

ALZ061>064-180700-
COASTAL ALABAMA

CITY           SKY/WX    TMP DP  RH WIND       PRES   REMARKS
MOBILE REG APT FOG       62  61  96 CALM      30.15R VSB 3/4
6HR MIN TEMP:  60; 6HR MAX TEMP:  67; 6HR PCP: TRACE;

BROOKLEY FIELD MOCLDY    65  65 100 S7        30.14S FOG
6HR MIN TEMP:  63; 6HR MAX TEMP:  66;

USA CAMPUS*    NOT AVBL
DOG RIVER*     NOT AVBL


CITY           SKY/WX    TMP DP  RH WIND       PRES   REMARKS
GULF SHORES    CLOUDY    66  66 100 SE7       30.14S FOG

$$

ALZ051>060-180700-
INTERIOR SOUTHWEST AND SOUTH CENTRAL ALABAMA

CITY           SKY/WX    TMP DP  RH WIND       PRES   REMARKS
GREENVILLE     FOG       61  58  90 N5        30.14S VSB 3/4
6HR MIN TEMP:  62; 6HR MAX TEMP:  67; 6HR PCP:  0.02;

EVERGREEN      FOG       66  65  96 SW3       30.15S VSB 1/4
6HR MIN TEMP:  66; 6HR MAX TEMP:  67; 6HR PCP:  0.05;

ATMORE*          N/A    N/A N/A N/A S2          N/A
ANDALUSIA/OPP  CLOUDY    70  66  87 VRB5      30.13F
6HR MIN TEMP:  68; 6HR MAX TEMP:  70; 6HR PCP:  0.02;

ANDALUSIA*       N/A     66  66 100 S5        30.14S
FLORALA APT    CLOUDY    68  66  93 S10       30.16S
6HR MIN TEMP:  65; 6HR MAX TEMP:  68; 6HR PCP:  0.07;

FLORALA*         N/A     68  66  94 S2        30.87S

$$

FLZ001>006-180700-
WESTERN FLORIDA PANHANDLE

CITY           SKY/WX    TMP DP  RH WIND       PRES   REMARKS
PENSACOLA      FOG       67  65  93 S6        30.14S VSB 1/2
6HR MIN TEMP:  66; 6HR MAX TEMP:  68; 6HR PCP:  0.09;

NAS PENSACOLA  CLOUDY    68  66  93 S5        30.14S
6HR MIN TEMP:  64; 6HR MAX TEMP:  68; 6HR PCP:  0.04;

MILTON         FOG       66  66 100 S5        30.14S VSB 1/4
6HR MIN TEMP:  65; 6HR MAX TEMP:  67; 6HR PCP:  0.35;

WHTNG S FIELD  FOG       70  68  93 SE3       30.14S VSB 1/4
6HR MIN TEMP:  69; 6HR MAX TEMP:  70; 6HR PCP:  0.39;



CITY           SKY/WX    TMP DP  RH WIND       PRES   REMARKS
JAY*             N/A    N/A N/A N/A S6        30.14S
DUKE FIELD     CLOUDY    69  69 100 S12       30.14F
CRESTVIEW      CLOUDY    69  67  93 S8        30.16S
6HR MIN TEMP:  66; 6HR MAX TEMP:  69; 6HR PCP:  0.38;

VALPARAISO     DRIZZLE   69  69 100 SE12      30.15R FOG
6HR MIN TEMP:  65; 6HR MAX TEMP:  69; 6HR PCP:  0.49;

DESTIN         LGT RAIN  70  66  87 SE10      30.15S FOG
6HR MIN TEMP:  67; 6HR MAX TEMP:  72; 6HR PCP:  0.83;


$$

MSZ076-079-180700-
INTERIOR SOUTHEAST MISSISSIPPI

CITY           SKY/WX    TMP DP  RH WIND       PRES   REMARKS
LEAKESVILLE*     N/A     64  64 100 NW2       30.14S
AGRICOLA*      NOT AVBL

$$

MARINE OBSERVATIONS

STATION/POSITION TIME  TEMP    WIND        PRES    WAVE
                       AIR SEA DIR/SP/G            HT/PER
                 (UTC) (F)     (DEG/KT/KT) (MB)    (FT/S)
PASCAGOULA       0548   62     160/  6/  7 1020.1R
PETIT BOIS ISLND 0548   63     180/  6/  6 1021.0R
KATRINA CUT      0530   61     160/ 13     1020.3F
CEDAR POINT      0530   63     150/  7     1020.0F
E DAUPHIN ISLAND 0500   64     160/  8/  9 1019.9S
MIDDLE BAY LIGHT 0430   60     130/  9     1020.3R
USCG MOBILE BAY  0548   62 56  180/  2/  4 1020.3R
STATE DOCKS      0536   62 56              1020.3R
MEAHER PARK      0530   59     340/  2     1020.7S
WEEKS BAY        0445   65                 1020.0S
FORT MORGAN      0548   65     170/ 13/ 14   N/A
12 S ORANGE BCH  NOT AVBL
PENSACOLA BAY    0448   64 55              1020.6F
64 S DAUPHIN ISL 0550   72 74   CALM  /  2 1021.3R   4/ 7
67 S FORT MORGAN 0530   73                 1021.0S

$$

SELECTED LOCATIONS ACROSS THE REGION

CITY           SKY/WX    TMP DP  RH WIND       PRES   REMARKS
NEW ORLEANS    CLOUDY    65  65 100 S8        30.13S
GULFPORT       CLOUDY    65  64  97 S3        30.13R FOG
PASCAGOULA AP  FOG       63  62  97 CALM      30.14R VSB 3/4
PASCAGOULA*    NOT AVBL
HATTIESBURG    CLOUDY    58  58 100 CALM      30.15S FOG
LAUREL         CLOUDY    56  56 100 CALM      30.15S FOG
MERIDIAN       CLOUDY    52  51  97 N5        30.15F FOG
JACKSON        CLOUDY    58  56  93 N3        30.13R FOG
MONTGOMERY     FOG       52  50  93 CALM      30.16F VSB 1/4
TROY           CLOUDY    66  66 100 SW5       30.15S
ASHFORD*         N/A     66  66 100 S5        30.14S
DOTHAN         LGT RAIN  67  67 100 S13       30.17F
PANAMA CITY    LGT RAIN  68  66  93 SE14      30.14F

$$





USA.gov is the U.S. government's official web portal to all federal, state and local government web resources and services.